+ View the NASA Portal
+ Center for Near-Earth Object Studies
IMPORTANT:
The SSD Announcement email list is now available. Major changes are coming in the near future, including possible hostname and/or URL changes. To be notified of such changes, subscribe to this email list.
Please visit
this page
for more details.
Don't show this message again
JPL Small-Body Database Browser
Search:
[
help
]
226582 (2003 YK153)
Classification:
Inner Main-belt Asteroid
SPK-ID:
2226582
[
Ephemeris
|
Orbit Diagram
|
Orbital Elements
|
Mission Design
|
Physical Parameters
|
Discovery Circumstances
]
[ show orbit diagram ]
Orbital Elements at Epoch 2458600.5 (2019-Apr-27.0) TDB
Reference:
JPL 14
(heliocentric ecliptic J2000)
Element
Value
Uncertainty (1-sigma)
Units
e
.07125388055636547
6.8446e-08
a
1.966518158938591
8.766e-09
au
q
1.826396108929657
1.3593e-07
au
i
17.73578769513644
7.2279e-06
deg
node
286.8839563364169
1.424e-05
deg
peri
181.6494865558609
3.8969e-05
deg
M
166.5644182464571
3.7203e-05
deg
t
p
2458134.457954223626
(2018-Jan-15.95795422)
0.00010257
TDB
period
1007.268768718935
2.76
6.735e-06
1.844e-08
d
yr
n
.3574021266020738
2.3897e-09
deg/d
Q
2.106640208947525
9.3906e-09
au
Orbit Determination Parameters
# obs. used (total)
523
data-arc span
6969 days (19.08 yr)
first obs. used
2000-08-05
last obs. used
2019-09-04
planetary ephem.
DE431
SB-pert. ephem.
SB431-N16
condition code
0
norm. resid. RMS
.48808
source
ORB
producer
Otto Matic
solution date
2019-Sep-24 04:09:39
Additional Information
Earth MOID
= .843427 au
Jupiter MOID
= 3.01689 au
T_jup
= 3.814
[ show covariance matrix ]
[
Ephemeris
|
Orbit Diagram
|
Orbital Elements
|
Mission Design
|
Physical Parameters
|
Discovery Circumstances
]
Physical Parameter Table
Parameter
Symbol
Value
Units
Sigma
Reference
Notes
absolute magnitude
H
16.0
n/a
MPO321145
226582 (2003 YK153)
Discovered 2003-Dec-29 by LINEAR at Socorro
Reference:
20091202/Numbers.arc
Last Updated:
2009-12-04
[
Ephemeris
|
Orbit Diagram
|
Orbital Elements
|
Mission Design
|
Physical Parameters
|
Discovery Circumstances
]
2019-Dec-05 20:22 UT
(server date/time)
Site Manager:
Ryan S. Park
Webmaster
:
Alan B. Chamberlin